• In Sweden
  • List of Countries
  • For 7 days
  • Water Temperature
  • Satellite Maps
  • Weather Map
  • Weather Widgets
  • user-avatar
    Login

    Hourly Weather Fedosovo

    Today, 21 October, Sunday

    Time Temperature Precipitation Wind Pressure Humidity
    00:00 +4°C° 0 mm 1 mps 749 mmHg 90%
    01:00 +4°C° 0 mm 1 mps 749 mmHg 91%
    02:00 +4°C° 0 mm 1 mps 750 mmHg 92%
    03:00 +4°C° 0 mm 1 mps 750 mmHg 93%
    04:00 +3°C° 0 mm 1 mps 750 mmHg 93%
    05:00 +3°C° 0 mm 1 mps 750 mmHg 94%
    06:00 +4°C° 0 mm 1 mps 750 mmHg 92%
    07:00 +4°C° 0 mm 1 mps 750 mmHg 91%
    08:00 +5°C° 0 mm 1 mps 751 mmHg 87%
    09:00 +6°C° 0 mm 1 mps 751 mmHg 81%
    10:00 +7°C° 0 mm 1 mps 751 mmHg 74%
    11:00 +9°C° 0 mm 1 mps 751 mmHg 68%
    12:00 +9°C° 0 mm 1 mps 751 mmHg 65%
    13:00 +9°C° 0 mm 1 mps 751 mmHg 62%
    14:00 +10°C° 0 mm 1 mps 751 mmHg 56%
    15:00 +9°C° 0 mm 1 mps 751 mmHg 61%
    16:00 +7°C° 0 mm 1 mps 751 mmHg 67%
    17:00 +5°C° 0 mm 0 mps 751 mmHg 72%
    18:00 +5°C° 0 mm 0 mps 751 mmHg 75%
    19:00 +4°C° 0 mm 0 mps 752 mmHg 77%
    20:00 +4°C° 0 mm 0 mps 752 mmHg 79%
    21:00 +4°C° 0 mm 1 mps 752 mmHg 81%
    22:00 +4°C° 0 mm 1 mps 752 mmHg 83%
    23:00 +4°C° 0 mm 1 mps 752 mmHg 84%

    Tomorrow, 22 October, Monday

    Time Temperature Precipitation Wind Pressure Humidity
    00:00 +4°C° 0 mm 1 mps 752 mmHg 86%
    01:00 +3°C° 0 mm 1 mps 752 mmHg 87%
    02:00 +3°C° 0 mm 1 mps 751 mmHg 89%
    03:00 +3°C° 0 mm 1 mps 751 mmHg 90%
    04:00 +3°C° 0 mm 1 mps 751 mmHg 91%
    05:00 +1°C° 0 mm 2 mps 751 mmHg 92%
    06:00 +2°C° 0 mm 2 mps 750 mmHg 90%
    07:00 +2°C° 0 mm 2 mps 750 mmHg 87%
    08:00 +3°C° 0 mm 2 mps 750 mmHg 85%
    09:00 +3°C° 0 mm 3 mps 750 mmHg 79%
    10:00 +5°C° 0 mm 3 mps 749 mmHg 72%
    11:00 +7°C° 0 mm 3 mps 749 mmHg 66%
    12:00 +7°C° 0 mm 4 mps 748 mmHg 64%
    13:00 +7°C° 0 mm 4 mps 747 mmHg 63%
    14:00 +8°C° 0 mm 4 mps 747 mmHg 61%
    15:00 +7°C° 0 mm 4 mps 746 mmHg 66%
    16:00 +7°C° 0 mm 3 mps 746 mmHg 71%
    17:00 +5°C° 0 mm 3 mps 745 mmHg 77%
    18:00 +4°C° 0 mm 3 mps 744 mmHg 78%
    19:00 +4°C° 0 mm 4 mps 744 mmHg 79%
    20:00 +4°C° 0 mm 4 mps 744 mmHg 80%
    21:00 +4°C° 0 mm 4 mps 743 mmHg 82%
    22:00 +3°C° 0 mm 4 mps 742 mmHg 84%
    23:00 +3°C° 0 mm 4 mps 742 mmHg 86%

    Day after tomorrow, 23 October, Tuesday

    Time Temperature Precipitation Wind Pressure Humidity
    00:00 +3°C° 0.2 mm 4 mps 741 mmHg 88%
    01:00 +3°C° 0.2 mm 3 mps 741 mmHg 90%
    02:00 +3°C° 0.2 mm 3 mps 740 mmHg 92%
    03:00 +3°C° 0.6 mm 3 mps 740 mmHg 92%
    04:00 +4°C° 0.6 mm 3 mps 739 mmHg 92%
    05:00 +4°C° 0.6 mm 3 mps 739 mmHg 92%
    06:00 +4°C° 0.1 mm 3 mps 739 mmHg 92%
    07:00 +4°C° 0.1 mm 3 mps 739 mmHg 91%
    08:00 +4°C° 0.1 mm 3 mps 739 mmHg 90%
    09:00 +4°C° 0 mm 3 mps 739 mmHg 82%
    10:00 +5°C° 0 mm 3 mps 738 mmHg 74%
    11:00 +7°C° 0 mm 3 mps 738 mmHg 66%
    12:00 +7°C° 0 mm 2 mps 738 mmHg 64%
    13:00 +7°C° 0 mm 2 mps 737 mmHg 62%
    14:00 +7°C° 0 mm 2 mps 736 mmHg 60%
    15:00 +6°C° 0 mm 2 mps 736 mmHg 65%
    16:00 +5°C° 0 mm 2 mps 735 mmHg 71%
    17:00 +4°C° 0 mm 2 mps 735 mmHg 76%
    18:00 +4°C° 0 mm 2 mps 734 mmHg 77%
    19:00 +4°C° 0 mm 2 mps 733 mmHg 78%
    20:00 +4°C° 0 mm 2 mps 732 mmHg 79%
    21:00 +2°C° 0 mm 3 mps 731 mmHg 80%
    22:00 +2°C° 0 mm 3 mps 730 mmHg 81%
    23:00 +2°C° 0 mm 3 mps 729 mmHg 82%

    24 October, Wednesday

    Time Temperature Precipitation Wind Pressure Humidity
    00:00 +1°C° 0 mm 4 mps 728 mmHg 83%
    01:00 0°C° 0 mm 4 mps 727 mmHg 84%
    02:00 0°C° 0 mm 4 mps 726 mmHg 85%
    03:00 0°C° 0.1 mm 5 mps 725 mmHg 84%
    04:00 +1°C° 0.1 mm 5 mps 724 mmHg 84%
    05:00 +1°C° 0.1 mm 5 mps 723 mmHg 84%
    06:00 +1°C° 0.4 mm 5 mps 722 mmHg 83%
    07:00 +1°C° 0.4 mm 5 mps 721 mmHg 83%
    08:00 +2°C° 0.4 mm 6 mps 720 mmHg 83%
    09:00 +2°C° 0.6 mm 5 mps 720 mmHg 83%
    10:00 +2°C° 0.6 mm 5 mps 720 mmHg 83%
    11:00 +3°C° 0.6 mm 5 mps 719 mmHg 83%
    12:00 +3°C° 0.7 mm 5 mps 719 mmHg 84%
    13:00 +3°C° 0.7 mm 5 mps 719 mmHg 85%
    14:00 +4°C° 0.7 mm 4 mps 719 mmHg 86%
    15:00 +4°C° 0.3 mm 4 mps 719 mmHg 88%
    16:00 +4°C° 0.3 mm 3 mps 719 mmHg 90%
    17:00 +4°C° 0.3 mm 3 mps 719 mmHg 91%
    18:00 +4°C° 0.4 mm 3 mps 720 mmHg 92%
    19:00 +3°C° 0.4 mm 3 mps 720 mmHg 93%
    20:00 +4°C° 0.4 mm 2 mps 720 mmHg 94%
    21:00 +4°C° 0.2 mm 2 mps 720 mmHg 94%
    22:00 +4°C° 0.2 mm 2 mps 721 mmHg 95%
    23:00 +4°C° 0.2 mm 2 mps 721 mmHg 95%

    25 October, Thursday

    Time Temperature Precipitation Wind Pressure Humidity
    00:00 +3°C° 0.1 mm 3 mps 721 mmHg 95%
    01:00 +3°C° 0.1 mm 3 mps 722 mmHg 95%
    02:00 +2°C° 0.1 mm 3 mps 722 mmHg 95%
    03:00 +3°C° 0.1 mm 4 mps 722 mmHg 93%
    04:00 +3°C° 0.1 mm 4 mps 723 mmHg 91%
    05:00 +2°C° 0.1 mm 5 mps 723 mmHg 89%
    06:00 +2°C° 0.3 mm 6 mps 723 mmHg 87%
    07:00 +2°C° 0.3 mm 6 mps 723 mmHg 85%
    08:00 +2°C° 0.3 mm 7 mps 723 mmHg 83%
    09:00 +2°C° 0.8 mm 7 mps 723 mmHg 82%
    10:00 +1°C° 0.8 mm 8 mps 724 mmHg 81%
    11:00 +1°C° 0.8 mm 8 mps 724 mmHg 80%
    12:00 +1°C° 0.7 mm 8 mps 724 mmHg 79%
    13:00 +1°C° 0.7 mm 8 mps 724 mmHg 77%
    14:00 +1°C° 0.7 mm 8 mps 724 mmHg 75%
    15:00 +1°C° 0.2 mm 8 mps 725 mmHg 75%
    16:00 0°C° 0.2 mm 7 mps 725 mmHg 75%
    17:00 0°C° 0.2 mm 7 mps 726 mmHg 74%
    18:00 0°C° 0 mm 7 mps 726 mmHg 76%
    19:00 -1°C° 0 mm 6 mps 726 mmHg 78%
    20:00 -1°C° 0 mm 6 mps 727 mmHg 79%
    21:00 -1°C° 0 mm 5 mps 727 mmHg 82%
    22:00 -1°C° 0 mm 5 mps 728 mmHg 84%
    23:00 -1°C° 0 mm 4 mps 728 mmHg 87%

    26 October, Friday

    Time Temperature Precipitation Wind Pressure Humidity
    00:00 -1°C° 0 mm 4 mps 728 mmHg 89%
    01:00 -1°C° 0 mm 4 mps 729 mmHg 90%
    02:00 -1°C° 0 mm 4 mps 729 mmHg 92%
    03:00 -1°C° 0 mm 4 mps 729 mmHg 92%
    04:00 0°C° 0 mm 4 mps 730 mmHg 91%
    05:00 0°C° 0 mm 4 mps 730 mmHg 90%
    06:00 0°C° 0 mm 4 mps 731 mmHg 89%
    07:00 0°C° 0 mm 4 mps 731 mmHg 88%
    08:00 0°C° 0 mm 4 mps 731 mmHg 87%
    09:00 +1°C° 0 mm 4 mps 732 mmHg 84%
    10:00 +1°C° 0 mm 4 mps 732 mmHg 80%
    11:00 +3°C° 0 mm 4 mps 733 mmHg 76%
    12:00 +4°C° 0 mm 4 mps 733 mmHg 75%
    13:00 +4°C° 0 mm 4 mps 733 mmHg 74%
    14:00 +4°C° 0 mm 4 mps 734 mmHg 72%
    15:00 +4°C° 0.1 mm 3 mps 734 mmHg 77%
    16:00 +3°C° 0.1 mm 3 mps 735 mmHg 82%
    17:00 +3°C° 0.1 mm 3 mps 735 mmHg 87%
    18:00 +3°C° 0 mm 3 mps 735 mmHg 88%
    19:00 +2°C° 0 mm 3 mps 736 mmHg 89%
    20:00 +3°C° 0 mm 2 mps 736 mmHg 90%
    21:00 +2°C° 0 mm 2 mps 736 mmHg 91%
    22:00 +2°C° 0 mm 2 mps 737 mmHg 91%
    23:00 +2°C° 0 mm 2 mps 737 mmHg 92%
    Show more